Location: *
(51.4660°N, 0.3360°W)
Time: 00:35:31
(UTC+00:00)

SL-8 Rocket - Pass Details

Date: 19 September 2019
Orbit: 956 x 991 km, 82.9° (Epoch: 19 October)

Event Time Altitude Azimuth Distance (km) Brightness Sun altitude
Rises 19:20:53 0° 351° (N) 3,677 7.4 -12.1°
Reaches altitude 10° 19:23:29 10° 356° (N) 2,720 6.6 -12.5°
Maximum altitude 19:29:36 57° 75° (ENE) 1,123 4.1 -13.4°
Drops below altitude 10° 19:35:38 10° 154° (SSE) 2,686 5.9 -14.2°
Enters shadow 19:35:54 - 154° (SSE) 2,782 6.0 -14.3°
